Weather History for Belmar-Farmingdale, NJ

Change the Weather History Date:

Friday, January 24, 2014

  Actual Average Record
Temperature  
Mean Temperature 12 °F -  
Max Temperature 17 °F 35 °F 59 °F (1999)
Min Temperature 6 °F 21 °F 3 °F (2005)
Degree Days  
Heating Degree Days 54    
Moisture  
Dew Point -2 °F    
Average Humidity 52    
Maximum Humidity 73    
Minimum Humidity 38    
Precipitation  
Precipitation 0.00 in - - ()
Sea Level Pressure  
Sea Level Pressure 30.29 in    
Wind  
Wind Speed 9 mph (West)    
Max Wind Speed 20 mph    
Max Gust Speed 24 mph    
Visibility 9 miles    
Events      
Averages and records for this station are not official NWS values.
T = Trace of Precipitation, MM = Missing Value Source: NWS Daily Summary

Daily Weather History Graph

Daily Weather History Graph

Search for Another Location

Airport:

Trip Planner

Search our weather history database for the weather conditions in past years. The results will help you decide how hot, cold, wet, or windy it might be!

Date:

Astronomy

Jan. 24, 2014 Rise Set
Actual Time 7:11 AM EST 5:05 PM EST
Civil Twilight 6:42 AM EST 5:34 PM EST
Nautical Twilight 6:09 AM EST 6:07 PM EST
Astronomical Twilight 5:37 AM EST 6:40 PM EST
Moon 12:36 AM EST (1/24) 11:22 AM EST (1/24)
Length of Visible Light 10h 52m
Length of Day
9h 53m
Last Quarter, 45% of the Moon is Illuminated
Jan 24
Last Quarter
Jan 30
New
Feb 6
First Quarter
Feb 14
Full
Feb 22
Last Quarter

Hourly Weather History & Observations

Time (EST) Temp. Windchill Dew Point Humidity Pressure Visibility Wind Dir Wind Speed Gust Speed Precip Events Conditions
12:15 AM 10.4 °F -1.5 °F 1.4 °F 67% 30.30 in 10.0 mi West 8.1 mph - N/A   Clear
12:35 AM 12.2 °F 4.3 °F 1.4 °F 62% 30.30 in 10.0 mi West 4.6 mph - N/A   Clear
12:55 AM 12.2 °F 4.3 °F 1.4 °F 62% 30.30 in 10.0 mi West 4.6 mph - N/A   Clear
1:15 AM 10.4 °F 0.8 °F 1.4 °F 67% 30.31 in 10.0 mi WNW 5.8 mph - N/A   Clear
1:35 AM 10.4 °F -1.5 °F 1.4 °F 67% 30.30 in 10.0 mi West 8.1 mph - N/A   Clear
1:55 AM 10.4 °F -1.5 °F 1.4 °F 67% 30.31 in 10.0 mi WNW 8.1 mph - N/A   Clear
2:15 AM 10.4 °F -1.5 °F 1.4 °F 67% 30.31 in 10.0 mi WNW 8.1 mph - N/A   Clear
2:35 AM 8.6 °F -3.7 °F 1.4 °F 73% 30.31 in 10.0 mi WNW 8.1 mph - N/A   Clear
2:55 AM 8.6 °F -3.7 °F -0.4 °F 67% 30.31 in 10.0 mi WNW 8.1 mph - N/A   Clear
3:15 AM 8.6 °F -1.3 °F -0.4 °F 67% 30.31 in 10.0 mi West 5.8 mph - N/A   Clear
3:35 AM 8.6 °F -4.7 °F -0.4 °F 67% 30.31 in 10.0 mi West 9.2 mph - N/A   Clear
3:55 AM 8.6 °F -3.7 °F -0.4 °F 67% 30.32 in 10.0 mi West 8.1 mph - N/A   Clear
4:15 AM 8.6 °F -5.5 °F 1.4 °F 73% 30.31 in 10.0 mi West 10.4 mph - N/A   Clear
4:35 AM 8.6 °F -3.7 °F 1.4 °F 73% 30.32 in 10.0 mi West 8.1 mph - N/A   Clear
4:55 AM 8.6 °F -2.6 °F 1.4 °F 73% 30.33 in 10.0 mi West 6.9 mph - N/A   Clear
5:15 AM 8.6 °F -2.6 °F -0.4 °F 67% 30.33 in 10.0 mi West 6.9 mph - N/A   Clear
5:35 AM 8.6 °F -2.6 °F -0.4 °F 67% 30.34 in 10.0 mi WNW 6.9 mph - N/A   Clear
5:55 AM 8.6 °F -4.7 °F -0.4 °F 67% 30.35 in 10.0 mi West 9.2 mph - N/A   Clear
6:15 AM 8.6 °F -3.7 °F -2.2 °F 62% 30.35 in 10.0 mi West 8.1 mph - N/A   Clear
6:35 AM 8.6 °F -2.6 °F -2.2 °F 62% 30.36 in 10.0 mi West 6.9 mph - N/A   Clear
6:55 AM 6.8 °F -4.8 °F -2.2 °F 67% 30.37 in 10.0 mi West 6.9 mph - N/A   Clear
7:15 AM 6.8 °F -5.9 °F -2.2 °F 67% 30.37 in 10.0 mi West 8.1 mph - N/A   Clear
7:35 AM 8.6 °F -3.7 °F -2.2 °F 62% 30.38 in 10.0 mi West 8.1 mph - N/A   Clear
7:55 AM 8.6 °F -3.7 °F -2.2 °F 62% 30.38 in 10.0 mi West 8.1 mph - N/A   Clear
8:15 AM 8.6 °F -5.5 °F -2.2 °F 62% 30.39 in 10.0 mi West 10.4 mph - N/A   Clear
8:35 AM 10.4 °F -5.4 °F -2.2 °F 57% 30.39 in 10.0 mi WNW 13.8 mph 17.3 mph N/A   Clear
8:55 AM 10.4 °F -5.4 °F -2.2 °F 57% 30.39 in 2.0 mi WNW 13.8 mph 21.9 mph N/A   Clear
9:15 AM 12.2 °F -3.1 °F -2.2 °F 53% 30.39 in 0.5 mi NW 13.8 mph - N/A   Unknown
9:35 AM 12.2 °F -3.1 °F -4.0 °F 48% 30.39 in 1.2 mi NW 13.8 mph 18.4 mph N/A   Clear
9:55 AM 12.2 °F -2.5 °F -4.0 °F 48% 30.39 in 0.5 mi NW 12.7 mph 24.2 mph N/A   Unknown
10:15 AM 12.2 °F -5.8 °F -2.2 °F 53% 30.39 in 9.0 mi NW 19.6 mph - N/A   Clear
10:35 AM 14.0 °F -2.5 °F -4.0 °F 45% 30.39 in 1.0 mi WNW 17.3 mph 21.9 mph N/A   Clear
10:55 AM 14.0 °F -0.2 °F -4.0 °F 45% 30.39 in 0.8 mi WNW 12.7 mph 19.6 mph N/A   Unknown
11:15 AM 14.0 °F -2.5 °F -4.0 °F 45% 30.38 in 0.8 mi NW 17.3 mph 24.2 mph N/A   Unknown
11:35 AM 15.8 °F 0.9 °F -4.0 °F 41% 30.37 in 10.0 mi WNW 15.0 mph 19.6 mph N/A   Clear
11:55 AM 15.8 °F 2.7 °F -4.0 °F 41% 30.36 in 5.0 mi West 11.5 mph 20.7 mph N/A   Clear
12:15 PM 15.8 °F 0.9 °F -4.0 °F 41% 30.35 in 5.0 mi West 15.0 mph 19.6 mph N/A   Clear
12:35 PM 15.8 °F -0.2 °F -4.0 °F 41% 30.34 in 10.0 mi WNW 17.3 mph - N/A   Clear
12:55 PM 15.8 °F 1.4 °F -4.0 °F 41% 30.33 in 6.0 mi WNW 13.8 mph 21.9 mph N/A   Clear
1:15 PM 15.8 °F 1.4 °F -4.0 °F 41% 30.32 in 9.0 mi WNW 13.8 mph - N/A   Clear
1:35 PM 17.6 °F 6.4 °F -2.2 °F 42% 30.31 in 10.0 mi West 9.2 mph - N/A   Clear
1:55 PM 17.6 °F 4.3 °F -4.0 °F 38% 30.30 in 10.0 mi WNW 12.7 mph 19.6 mph N/A   Clear
2:15 PM 17.6 °F 3.2 °F -2.2 °F 42% 30.30 in 10.0 mi West 15.0 mph - N/A   Clear
2:35 PM 17.6 °F 5.7 °F -4.0 °F 38% 30.28 in 10.0 mi West 10.4 mph - N/A   Clear
2:55 PM 17.6 °F 5.0 °F -4.0 °F 38% 30.27 in 10.0 mi West 11.5 mph - N/A   Clear
3:15 PM 17.6 °F 5.0 °F -4.0 °F 38% 30.27 in 10.0 mi West 11.5 mph - N/A   Clear
3:35 PM 17.6 °F 3.2 °F -4.0 °F 38% 30.27 in 10.0 mi WSW 15.0 mph 19.6 mph N/A   Clear
3:55 PM 17.6 °F 5.7 °F -4.0 °F 38% 30.27 in 10.0 mi WSW 10.4 mph - N/A   Clear
4:15 PM 17.6 °F 5.0 °F -2.2 °F 42% 30.26 in 10.0 mi West 11.5 mph 17.3 mph N/A   Clear
4:35 PM 17.6 °F 7.3 °F -4.0 °F 38% 30.25 in 10.0 mi WSW 8.1 mph - N/A   Clear
4:55 PM 17.6 °F 9.3 °F -4.0 °F 38% 30.24 in 10.0 mi West 5.8 mph - N/A   Clear
5:15 PM 15.8 °F 5.1 °F -4.0 °F 41% 30.24 in 10.0 mi WSW 8.1 mph - N/A   Clear
5:35 PM 15.8 °F 6.1 °F -4.0 °F 41% 30.25 in 10.0 mi WSW 6.9 mph - N/A   Clear
5:55 PM 15.8 °F 6.1 °F -2.2 °F 45% 30.25 in 10.0 mi SW 6.9 mph - N/A   Clear
6:15 PM 15.8 °F 5.1 °F -2.2 °F 45% 30.25 in 10.0 mi WSW 8.1 mph - N/A   Clear
6:35 PM 15.8 °F 4.2 °F -2.2 °F 45% 30.25 in 10.0 mi WSW 9.2 mph - N/A   Clear
6:55 PM 15.8 °F 5.1 °F -2.2 °F 45% 30.25 in 10.0 mi SW 8.1 mph - N/A   Clear
7:15 PM 14.0 °F 3.9 °F -2.2 °F 49% 30.24 in 10.0 mi WSW 6.9 mph - N/A   Clear
7:35 PM 14.0 °F 3.9 °F -2.2 °F 49% 30.24 in 10.0 mi SW 6.9 mph - N/A   Clear
7:55 PM 14.0 °F 2.9 °F -4.0 °F 45% 30.23 in 10.0 mi SW 8.1 mph - N/A   Clear
8:15 PM 14.0 °F 2.0 °F -2.2 °F 49% 30.23 in 10.0 mi SW 9.2 mph - N/A   Clear
8:35 PM 14.0 °F 2.0 °F -2.2 °F 49% 30.22 in 10.0 mi SW 9.2 mph - N/A   Clear
8:55 PM 14.0 °F 2.0 °F -2.2 °F 49% 30.21 in 10.0 mi SW 9.2 mph - N/A   Clear
9:15 PM 14.0 °F 2.9 °F -2.2 °F 49% 30.20 in 10.0 mi SW 8.1 mph - N/A   Clear
9:35 PM 14.0 °F 1.2 °F -2.2 °F 49% 30.19 in 10.0 mi SSW 10.4 mph - N/A   Clear
9:55 PM 14.0 °F 2.9 °F -2.2 °F 49% 30.17 in 10.0 mi SW 8.1 mph - N/A   Clear
10:15 PM 14.0 °F 1.2 °F -2.2 °F 49% 30.16 in 10.0 mi SW 10.4 mph - N/A   Clear
10:35 PM 14.0 °F 3.9 °F -2.2 °F 49% 30.15 in 10.0 mi SW 6.9 mph - N/A   Clear
10:55 PM 15.8 °F 5.1 °F -0.4 °F 49% 30.15 in 10.0 mi SW 8.1 mph - N/A   Clear
11:15 PM 15.8 °F 5.1 °F -2.2 °F 45% 30.14 in 10.0 mi SSW 8.1 mph - N/A   Clear
11:35 PM 15.8 °F 4.2 °F -0.4 °F 49% 30.12 in 10.0 mi SSW 9.2 mph - N/A   Clear
11:55 PM 15.8 °F 5.1 °F -0.4 °F 49% 30.11 in 10.0 mi SSW 8.1 mph - N/A   Clear